Location: Azul
(36.7830°S, 59.8500°W)
Time: 01:04:03
(UTC-03:00)

First-Move - Pass Details

Date: 23 October 2021
Orbit: 575 x 664 km, 97.6° (Epoch: 30 November)

Event Time Altitude Azimuth Distance (km) Brightness Sun altitude
Rises 03:30:37 0° 60° (ENE) 2,922 ? -27.8°
Reaches altitude 10° 03:33:50 10° 86° (E) 2,045 ? -27.3°
Maximum altitude 03:35:59 13° 115° (ESE) 1,841 ? -27.0°
Drops below altitude 10° 03:38:09 10° 144° (SE) 2,081 ? -26.7°
Sets 03:41:29 0° 170° (S) 3,019 ? -26.2°
